TimeEDT,TemperatureF,Dew PointF,Humidity,Sea Level PressureIn,VisibilityMPH,Wind Direction,Wind SpeedMPH,Gust SpeedMPH,PrecipitationIn,Events,Conditions,WindDirDegrees,DateUTC
12:53 AM,30.9,15.1,52,30.36,10.0,ESE,13.8,-,N/A,,Clear,120,2013-04-04 04:53:00
1:53 AM,30.0,15.1,54,30.37,10.0,SE,10.4,-,N/A,,Clear,140,2013-04-04 05:53:00
2:53 AM,30.0,15.1,54,30.36,10.0,SSE,10.4,-,N/A,,Clear,150,2013-04-04 06:53:00
3:53 AM,28.9,15.1,56,30.34,10.0,SE,8.1,-,N/A,,Clear,130,2013-04-04 07:53:00
4:53 AM,28.0,15.1,58,30.33,10.0,SE,8.1,-,N/A,,Clear,130,2013-04-04 08:53:00
5:53 AM,28.0,15.1,58,30.30,10.0,ESE,8.1,-,N/A,,Clear,120,2013-04-04 09:53:00
6:53 AM,28.0,15.1,58,30.28,10.0,SE,10.4,-,N/A,,Clear,130,2013-04-04 10:53:00
7:53 AM,28.0,15.1,58,30.28,10.0,ESE,8.1,-,N/A,,Clear,120,2013-04-04 11:53:00
8:53 AM,30.9,16.0,54,30.27,10.0,SE,8.1,-,N/A,,Clear,140,2013-04-04 12:53:00
9:53 AM,35.1,17.1,48,30.25,10.0,SE,9.2,-,N/A,,Clear,140,2013-04-04 13:53:00
10:53 AM,39.9,17.1,40,30.22,10.0,SSE,9.2,-,N/A,,Clear,150,2013-04-04 14:53:00
11:53 AM,44.1,16.0,32,30.20,10.0,Variable,3.5,-,N/A,,Clear,0,2013-04-04 15:53:00
12:53 PM,46.9,12.0,24,30.16,10.0,Calm,Calm,-,N/A,,Clear,0,2013-04-04 16:53:00
1:53 PM,51.1,12.0,21,30.13,10.0,South,10.4,-,N/A,,Clear,170,2013-04-04 17:53:00
2:53 PM,51.1,10.9,20,30.09,10.0,WSW,5.8,-,N/A,,Clear,250,2013-04-04 18:53:00
3:53 PM,54.0,12.9,20,30.05,10.0,Variable,5.8,-,N/A,,Clear,0,2013-04-04 19:53:00
4:53 PM,55.9,14.0,19,30.02,10.0,SE,3.5,-,N/A,,Clear,140,2013-04-04 20:53:00
5:53 PM,55.0,12.9,19,30.01,10.0,West,5.8,-,N/A,,Clear,270,2013-04-04 21:53:00
6:53 PM,54.0,17.1,23,30.02,10.0,West,6.9,-,N/A,,Clear,260,2013-04-04 22:53:00
7:53 PM,50.0,19.9,31,30.01,10.0,WSW,6.9,-,N/A,,Clear,250,2013-04-04 23:53:00
8:53 PM,48.9,14.0,25,30.01,10.0,WSW,3.5,-,N/A,,Clear,240,2013-04-05 00:53:00
9:53 PM,44.1,17.1,34,30.01,10.0,Calm,Calm,-,N/A,,Clear,0,2013-04-05 01:53:00
10:53 PM,37.9,21.0,51,30.00,10.0,Calm,Calm,-,N/A,,Clear,0,2013-04-05 02:53:00
11:53 PM,39.9,17.1,40,29.99,10.0,Calm,Calm,-,N/A,,Clear,0,2013-04-05 03:53:00